Time,TemperatureF,DewpointF,PressureIn,WindDirection,WindDirectionDegrees,WindSpeedMPH,WindSpeedGustMPH,Humidity,HourlyPrecipIn,Conditions,Clouds,dailyrainin,SoftwareType,DateUTC
2013-01-30 00:04:00,60.0,60.0,30.00,ESE,115,0.0,0.0,99,-99.99,,,-99.99,,2013-01-30 05:04:00,
2013-01-30 00:12:00,60.0,60.0,30.00,ESE,115,0.0,0.0,99,-99.99,,,-99.99,,2013-01-30 05:12:00,
2013-01-30 00:22:00,60.0,3.0,30.01,ESE,115,0.0,0.0,10,-99.99,,,-99.99,,2013-01-30 05:22:00,
2013-01-30 00:32:00,60.0,3.0,30.01,ESE,115,0.0,0.0,10,-99.99,,,-99.99,,2013-01-30 05:32:00,
2013-01-30 00:43:00,60.0,3.0,30.01,ESE,115,0.0,0.0,10,-99.99,,,-99.99,,2013-01-30 05:43:00,
2013-01-30 01:22:00,61.0,61.0,29.99,South,170,4.0,8.0,99,-99.99,,,-99.99,,2013-01-30 06:22:00,
2013-01-30 01:32:00,61.0,61.0,29.97,ESE,104,3.0,5.0,99,-99.99,,,-99.99,,2013-01-30 06:32:00,
2013-01-30 01:42:00,61.0,61.0,29.97,ESE,104,3.0,5.0,99,-99.99,,,-99.99,,2013-01-30 06:42:00,
2013-01-30 01:52:00,61.0,61.0,29.97,ESE,104,3.0,5.0,99,-99.99,,,-99.99,,2013-01-30 06:52:00,
2013-01-30 02:02:00,61.0,61.0,29.97,ESE,104,3.0,5.0,99,-99.99,,,-99.99,,2013-01-30 07:02:00,
2013-01-30 02:11:00,61.0,61.0,29.97,ESE,104,3.0,5.0,99,-99.99,,,-99.99,,2013-01-30 07:11:00,
2013-01-30 02:32:00,61.0,61.0,29.95,SE,145,7.0,13.0,100,-99.99,,,-99.99,,2013-01-30 07:32:00,
2013-01-30 02:42:00,61.0,61.0,29.95,SE,145,7.0,13.0,100,-99.99,,,-99.99,,2013-01-30 07:42:00,
2013-01-30 02:52:00,61.0,61.0,29.95,SE,145,7.0,13.0,100,-99.99,,,-99.99,,2013-01-30 07:52:00,
2013-01-30 03:02:00,61.0,61.0,29.95,SE,145,7.0,13.0,100,-99.99,,,-99.99,,2013-01-30 08:02:00,
2013-01-30 03:11:00,61.0,61.0,29.95,SE,145,7.0,13.0,100,-99.99,,,-99.99,,2013-01-30 08:11:00,
2013-01-30 03:32:00,62.0,62.0,29.93,SE,134,4.0,9.0,100,-99.99,,,-99.99,,2013-01-30 08:32:00,
2013-01-30 03:42:00,62.0,62.0,29.93,SE,134,4.0,9.0,100,-99.99,,,-99.99,,2013-01-30 08:42:00,
2013-01-30 03:52:00,62.0,62.0,29.93,SSE,148,4.0,8.0,100,-99.99,,,-99.99,,2013-01-30 08:52:00,
2013-01-30 04:02:00,62.0,62.0,29.93,South,173,6.0,8.0,100,-99.99,,,-99.99,,2013-01-30 09:02:00,
2013-01-30 04:11:00,62.0,62.0,29.93,South,173,6.0,8.0,100,-99.99,,,-99.99,,2013-01-30 09:11:00,
2013-01-30 04:22:00,62.0,62.0,29.92,SSE,155,4.0,8.0,100,-99.99,,,-99.99,,2013-01-30 09:22:00,
2013-01-30 04:32:00,62.0,62.0,29.92,SSE,152,4.0,7.0,100,-99.99,,,-99.99,,2013-01-30 09:32:00,
2013-01-30 04:42:00,62.0,62.0,29.92,SSE,152,4.0,7.0,100,-99.99,,,-99.99,,2013-01-30 09:42:00,
2013-01-30 04:51:00,62.0,62.0,29.91,SSE,159,5.0,12.0,100,-99.99,,,-99.99,,2013-01-30 09:51:00,
2013-01-30 05:02:00,62.0,62.0,29.91,SSE,159,5.0,12.0,100,-99.99,,,-99.99,,2013-01-30 10:02:00,
2013-01-30 05:12:00,62.0,62.0,29.91,SSE,159,5.0,12.0,100,-99.99,,,-99.99,,2013-01-30 10:12:00,
2013-01-30 05:21:00,62.0,62.0,29.91,SSE,159,5.0,12.0,100,-99.99,,,-99.99,,2013-01-30 10:21:00,
2013-01-30 06:52:00,64.0,64.0,29.87,SE,142,9.0,17.0,100,-99.99,,,-99.99,,2013-01-30 11:52:00,
2013-01-30 07:02:00,64.0,64.0,29.86,SE,132,5.0,14.0,100,-99.99,,,-99.99,,2013-01-30 12:02:00,
2013-01-30 07:12:00,64.0,64.0,29.86,SE,132,5.0,14.0,100,-99.99,,,-99.99,,2013-01-30 12:12:00,
2013-01-30 07:22:00,64.0,64.0,29.86,SE,132,5.0,14.0,100,-99.99,,,-99.99,,2013-01-30 12:22:00,
2013-01-30 07:33:00,64.0,64.0,29.85,SE,135,8.0,18.0,100,-99.99,,,-99.99,,2013-01-30 12:33:00,
2013-01-30 07:43:00,64.0,64.0,29.85,SE,135,8.0,18.0,100,-99.99,,,-99.99,,2013-01-30 12:43:00,
2013-01-30 08:03:00,64.0,64.0,29.85,SE,135,8.0,18.0,100,-99.99,,,-99.99,,2013-01-30 13:03:00,
2013-01-30 08:23:00,65.0,65.0,29.83,ESE,107,6.0,15.0,100,-99.99,,,-99.99,,2013-01-30 13:23:00,
2013-01-30 08:33:00,64.0,64.0,29.84,ESE,115,10.0,16.0,100,-99.99,,,-99.99,,2013-01-30 13:33:00,
2013-01-30 08:43:00,64.0,64.0,29.84,ESE,115,10.0,16.0,100,-99.99,,,-99.99,,2013-01-30 13:43:00,
2013-01-30 08:53:00,65.0,65.0,29.83,ESE,107,8.0,15.0,100,-99.99,,,-99.99,,2013-01-30 13:53:00,
2013-01-30 09:03:00,65.0,65.0,29.83,ESE,107,8.0,15.0,100,-99.99,,,-99.99,,2013-01-30 14:03:00,
2013-01-30 09:12:00,65.0,65.0,29.83,ESE,107,8.0,15.0,100,-99.99,,,-99.99,,2013-01-30 14:12:00,
2013-01-30 09:23:00,65.0,65.0,29.82,ESE,114,7.0,17.0,100,-99.99,,,-99.99,,2013-01-30 14:23:00,
2013-01-30 09:33:00,65.0,65.0,29.82,ESE,114,7.0,17.0,100,-99.99,,,-99.99,,2013-01-30 14:33:00,
2013-01-30 09:42:00,65.0,65.0,29.82,ESE,114,7.0,17.0,100,-99.99,,,-99.99,,2013-01-30 14:42:00,
2013-01-30 09:52:00,66.0,66.0,29.82,SE,144,7.0,23.0,100,-99.99,,,-99.99,,2013-01-30 14:52:00,
2013-01-30 10:03:00,66.0,66.0,29.81,SSE,156,11.0,16.0,100,-99.99,,,-99.99,,2013-01-30 15:03:00,
2013-01-30 10:12:00,66.0,66.0,29.81,SSE,156,11.0,16.0,100,-99.99,,,-99.99,,2013-01-30 15:12:00,
2013-01-30 10:23:00,66.0,66.0,29.80,SSE,163,12.0,19.0,100,-99.99,,,-99.99,,2013-01-30 15:23:00,
2013-01-30 10:33:00,66.0,66.0,29.80,SSE,166,12.0,22.0,100,-99.99,,,-99.99,,2013-01-30 15:33:00,
2013-01-30 10:43:00,66.0,66.0,29.80,SSE,166,12.0,22.0,100,-99.99,,,-99.99,,2013-01-30 15:43:00,
2013-01-30 10:53:00,66.0,66.0,29.80,ESE,115,12.0,16.0,100,-99.99,,,-99.99,,2013-01-30 15:53:00,
2013-01-30 11:03:00,66.0,66.0,29.80,SSE,158,10.0,20.0,100,-99.99,,,-99.99,,2013-01-30 16:03:00,
2013-01-30 11:12:00,66.0,66.0,29.80,SSE,158,10.0,20.0,100,-99.99,,,-99.99,,2013-01-30 16:12:00,
2013-01-30 11:23:00,67.0,67.0,29.80,SE,132,13.0,27.0,100,-99.99,,,-99.99,,2013-01-30 16:23:00,
2013-01-30 11:32:00,67.0,67.0,29.78,SE,134,10.0,22.0,100,-99.99,,,-99.99,,2013-01-30 16:32:00,
2013-01-30 11:42:00,67.0,67.0,29.78,SE,134,10.0,22.0,100,-99.99,,,-99.99,,2013-01-30 16:42:00,
2013-01-30 11:52:00,67.0,67.0,29.78,SE,134,10.0,22.0,100,-99.99,,,-99.99,,2013-01-30 16:52:00,
2013-01-30 12:02:00,67.0,67.0,29.78,SE,134,10.0,22.0,100,-99.99,,,-99.99,,2013-01-30 17:02:00,
2013-01-30 12:13:00,67.0,67.0,29.78,SE,134,10.0,22.0,100,-99.99,,,-99.99,,2013-01-30 17:13:00,
2013-01-30 13:33:00,68.0,67.0,29.69,SE,142,14.0,30.0,98,-99.99,,,-99.99,,2013-01-30 18:33:00,
2013-01-30 13:43:00,68.0,67.0,29.69,SE,142,14.0,30.0,98,-99.99,,,-99.99,,2013-01-30 18:43:00,
2013-01-30 13:53:00,68.0,67.0,29.69,SE,142,14.0,30.0,98,-99.99,,,-99.99,,2013-01-30 18:53:00,
2013-01-30 14:03:00,69.0,68.0,29.65,SE,132,11.0,31.0,97,-99.99,,,-99.99,,2013-01-30 19:03:00,
2013-01-30 14:13:00,69.0,68.0,29.65,SE,132,11.0,31.0,97,-99.99,,,-99.99,,2013-01-30 19:13:00,
2013-01-30 14:22:00,69.0,68.0,29.65,SE,132,11.0,31.0,97,-99.99,,,-99.99,,2013-01-30 19:22:00,
2013-01-30 14:33:00,69.0,68.0,29.65,SE,132,11.0,31.0,97,-99.99,,,-99.99,,2013-01-30 19:33:00,
2013-01-30 14:43:00,69.0,68.0,29.65,SE,132,11.0,31.0,97,-99.99,,,-99.99,,2013-01-30 19:43:00,
2013-01-30 14:53:00,68.0,67.0,29.63,SSE,149,11.0,23.0,98,-99.99,,,-99.99,,2013-01-30 19:53:00,
2013-01-30 15:03:00,68.0,67.0,29.63,SSE,149,11.0,23.0,98,-99.99,,,-99.99,,2013-01-30 20:03:00,
2013-01-30 15:12:00,68.0,67.0,29.63,SSE,149,11.0,23.0,98,-99.99,,,-99.99,,2013-01-30 20:12:00,
2013-01-30 15:22:00,68.0,67.0,29.62,East,87,13.0,23.0,98,-99.99,,,-99.99,,2013-01-30 20:22:00,
2013-01-30 15:33:00,68.0,67.0,29.61,ESE,121,12.0,19.0,98,-99.99,,,-99.99,,2013-01-30 20:33:00,
2013-01-30 15:41:00,68.0,67.0,29.59,East,97,9.0,16.0,97,-99.99,,,-99.99,,2013-01-30 20:41:00,
2013-01-30 15:42:00,68.0,67.0,29.61,ESE,121,12.0,19.0,98,-99.99,,,-99.99,,2013-01-30 20:42:00,
2013-01-30 15:52:00,68.0,67.0,29.61,ESE,121,12.0,19.0,98,-99.99,,,-99.99,,2013-01-30 20:52:00,
2013-01-30 16:04:00,68.0,67.0,29.59,East,97,9.0,16.0,97,-99.99,,,-99.99,,2013-01-30 21:04:00,
2013-01-30 16:12:00,68.0,67.0,29.59,East,97,9.0,16.0,97,-99.99,,,-99.99,,2013-01-30 21:12:00,
2013-01-30 16:23:00,68.0,67.0,29.59,East,97,9.0,16.0,97,-99.99,,,-99.99,,2013-01-30 21:23:00,
2013-01-30 16:32:00,68.0,67.0,29.59,East,97,9.0,16.0,97,-99.99,,,-99.99,,2013-01-30 21:32:00,
2013-01-30 17:33:00,70.0,68.0,29.54,ESE,110,9.0,18.0,94,-99.99,,,-99.99,,2013-01-30 22:33:00,
2013-01-30 17:43:00,70.0,68.0,29.54,ESE,110,9.0,18.0,94,-99.99,,,-99.99,,2013-01-30 22:43:00,
2013-01-30 17:53:00,70.0,68.0,29.52,ESE,110,10.0,17.0,93,-99.99,,,-99.99,,2013-01-30 22:53:00,
2013-01-30 18:03:00,70.0,68.0,29.52,ESE,110,10.0,17.0,93,-99.99,,,-99.99,,2013-01-30 23:03:00,
2013-01-30 18:12:00,70.0,68.0,29.52,ESE,110,10.0,17.0,93,-99.99,,,-99.99,,2013-01-30 23:12:00,
2013-01-30 18:22:00,70.0,68.0,29.52,ESE,110,10.0,17.0,93,-99.99,,,-99.99,,2013-01-30 23:22:00,
2013-01-30 18:33:00,70.0,67.0,29.51,ESE,103,11.0,23.0,90,-99.99,,,-99.99,,2013-01-30 23:33:00,
2013-01-30 18:42:00,70.0,67.0,29.51,ESE,103,11.0,23.0,90,-99.99,,,-99.99,,2013-01-30 23:42:00,
2013-01-30 18:52:00,70.0,67.0,29.49,ESE,117,6.0,18.0,90,-99.99,,,-99.99,,2013-01-30 23:52:00,
2013-01-30 19:02:00,70.0,67.0,29.47,ESE,117,7.0,20.0,90,-99.99,,,-99.99,,2013-01-31 00:02:00,
2013-01-30 19:11:00,70.0,67.0,29.47,ESE,117,7.0,20.0,90,-99.99,,,-99.99,,2013-01-31 00:11:00,
2013-01-30 19:22:00,70.0,67.0,29.46,SE,135,10.0,19.0,89,-99.99,,,-99.99,,2013-01-31 00:22:00,
2013-01-30 19:32:00,70.0,67.0,29.45,East,94,11.0,21.0,89,-99.99,,,-99.99,,2013-01-31 00:32:00,
2013-01-30 19:42:00,70.0,67.0,29.45,East,94,11.0,21.0,89,-99.99,,,-99.99,,2013-01-31 00:42:00,
2013-01-30 19:53:00,70.0,67.0,29.45,East,94,11.0,21.0,89,-99.99,,,-99.99,,2013-01-31 00:53:00,
2013-01-30 20:02:00,70.0,67.0,29.45,East,94,11.0,21.0,89,-99.99,,,-99.99,,2013-01-31 01:02:00,
2013-01-30 21:22:00,64.0,64.0,29.37,ESE,110,8.0,19.0,100,-99.99,,,-99.99,,2013-01-31 02:22:00,
2013-01-30 21:32:00,63.0,63.0,29.41,South,189,11.0,15.0,100,-99.99,,,-99.99,,2013-01-31 02:32:00,
2013-01-30 21:42:00,63.0,63.0,29.41,South,189,11.0,15.0,100,-99.99,,,-99.99,,2013-01-31 02:42:00,
2013-01-30 21:52:00,63.0,63.0,29.41,South,189,11.0,15.0,100,-99.99,,,-99.99,,2013-01-31 02:52:00,
2013-01-30 22:03:00,62.0,62.0,29.39,SSE,166,10.0,25.0,100,-99.99,,,-99.99,,2013-01-31 03:03:00,
2013-01-30 22:11:00,62.0,62.0,29.39,SSE,166,10.0,25.0,100,-99.99,,,-99.99,,2013-01-31 03:11:00,
2013-01-30 22:22:00,62.0,62.0,29.39,SSE,166,10.0,25.0,100,-99.99,,,-99.99,,2013-01-31 03:22:00,
2013-01-30 22:32:00,63.0,63.0,29.35,SE,131,9.0,19.0,100,-99.99,,,-99.99,,2013-01-31 03:32:00,
2013-01-30 22:42:00,63.0,63.0,29.35,SE,131,9.0,19.0,100,-99.99,,,-99.99,,2013-01-31 03:42:00,
2013-01-30 22:52:00,63.0,63.0,29.36,South,180,14.0,25.0,100,-99.99,,,-99.99,,2013-01-31 03:52:00,
2013-01-30 23:02:00,63.0,63.0,29.37,SSE,152,13.0,23.0,100,-99.99,,,-99.99,,2013-01-31 04:02:00,
2013-01-30 23:11:00,63.0,63.0,29.37,SSE,152,13.0,23.0,100,-99.99,,,-99.99,,2013-01-31 04:11:00,
2013-01-30 23:22:00,62.0,62.0,29.38,SSW,197,10.0,23.0,100,-99.99,,,-99.99,,2013-01-31 04:22:00,
2013-01-30 23:32:00,62.0,62.0,29.38,SSW,197,10.0,23.0,100,-99.99,,,-99.99,,2013-01-31 04:32:00,
2013-01-30 23:42:00,62.0,62.0,29.38,SSW,197,10.0,23.0,100,-99.99,,,-99.99,,2013-01-31 04:42:00,
2013-01-30 23:51:00,54.0,54.0,29.41,SSW,210,10.0,24.0,100,-99.99,,,-99.99,,2013-01-31 04:51:00,